PRIVATE WETTERSTATION BILLIGHEIM-ALLFELD                       ZURCK
Wetterdaten: Sonntag, 08.10.2017
Datum Zeit Temp. A. Temp. A. min Temp. A. max Feuchte A. Luftdruck Regen Wind Richtung Richtung Sonnenschein ET Solar Taupunkt Windchill Windben Empfang
08.10.2017 00:00 8,3 C 8,3 C 8,4 C 89 % 1015,2 hPa 0,0 l/m 1,6 km/h (1 Bft) S 180 0 min 0,000 mm 0 W/m 6,6 C 8,3 C 11,3 km/h (2 Bft) 98 %
08.10.2017 00:10 8,3 C 8,3 C 8,4 C 89 % 1015,1 hPa 0,0 l/m 1,6 km/h (1 Bft) S 180 0 min 0,000 mm 0 W/m 6,6 C 8,3 C 9,7 km/h (2 Bft) 97 %
08.10.2017 00:20 8,2 C 8,2 C 8,3 C 89 % 1015,0 hPa 0,0 l/m 3,2 km/h (1 Bft) S-SO 157 0 min 0,000 mm 0 W/m 6,5 C 8,2 C 11,3 km/h (2 Bft) 97 %
08.10.2017 00:30 8,2 C 8,2 C 8,2 C 89 % 1015,1 hPa 0,2 l/m 3,2 km/h (1 Bft) S-SO 157 0 min 0,000 mm 0 W/m 6,5 C 8,2 C 11,3 km/h (2 Bft) 89 %
08.10.2017 00:40 8,1 C 8,1 C 8,2 C 89 % 1015,0 hPa 0,0 l/m 3,2 km/h (1 Bft) S-SW 202 0 min 0,000 mm 0 W/m 6,4 C 8,1 C 14,5 km/h (3 Bft) 97 %
08.10.2017 00:50 8,1 C 8,1 C 8,1 C 89 % 1014,9 hPa 0,0 l/m 6,4 km/h (2 Bft) S 180 0 min 0,000 mm 0 W/m 6,4 C 8,1 C 20,9 km/h (4 Bft) 97 %
08.10.2017 01:00 8,2 C 8,1 C 8,2 C 90 % 1014,8 hPa 0,2 l/m 6,4 km/h (2 Bft) S-SW 202 0 min 0,000 mm 0 W/m 6,7 C 8,2 C 20,9 km/h (4 Bft) 97 %
08.10.2017 01:10 8,2 C 8,2 C 8,2 C 90 % 1014,7 hPa 0,0 l/m 8,0 km/h (2 Bft) S-SW 202 0 min 0,000 mm 0 W/m 6,7 C 7,0 C 22,5 km/h (4 Bft) 98 %
08.10.2017 01:20 8,2 C 8,2 C 8,2 C 90 % 1014,7 hPa 0,0 l/m 8,0 km/h (2 Bft) S-SW 202 0 min 0,000 mm 0 W/m 6,7 C 7,0 C 17,7 km/h (3 Bft) 98 %
08.10.2017 01:30 8,3 C 8,2 C 8,3 C 90 % 1014,6 hPa 0,0 l/m 8,0 km/h (2 Bft) S-SW 202 0 min 0,000 mm 0 W/m 6,8 C 7,1 C 16,1 km/h (3 Bft) 98 %
08.10.2017 01:40 8,4 C 8,3 C 8,4 C 89 % 1014,5 hPa 0,0 l/m 9,7 km/h (2 Bft) S-SW 202 0 min 0,000 mm 0 W/m 6,7 C 6,0 C 20,9 km/h (4 Bft) 97 %
08.10.2017 01:50 8,5 C 8,4 C 8,5 C 89 % 1014,3 hPa 0,0 l/m 8,0 km/h (2 Bft) SW 225 0 min 0,000 mm 0 W/m 6,8 C 7,3 C 19,3 km/h (3 Bft) 97 %
08.10.2017 02:00 8,6 C 8,5 C 8,6 C 90 % 1014,3 hPa 0,0 l/m 11,3 km/h (2 Bft) SW 225 0 min 0,025 mm 0 W/m 7,1 C 5,3 C 24,1 km/h (4 Bft) 97 %
08.10.2017 02:10 8,7 C 8,6 C 8,7 C 89 % 1014,3 hPa 0,0 l/m 11,3 km/h (2 Bft) W-SW 247 0 min 0,000 mm 0 W/m 7,0 C 5,4 C 33,8 km/h (5 Bft) 98 %
08.10.2017 02:20 8,8 C 8,7 C 8,8 C 89 % 1014,6 hPa 0,0 l/m 12,9 km/h (3 Bft) W-SW 247 0 min 0,000 mm 0 W/m 7,1 C 4,7 C 27,4 km/h (4 Bft) 98 %
08.10.2017 02:30 8,8 C 8,8 C 8,8 C 89 % 1014,3 hPa 0,0 l/m 11,3 km/h (2 Bft) W 270 0 min 0,000 mm 0 W/m 7,1 C 5,5 C 25,7 km/h (4 Bft) 98 %
08.10.2017 02:40 8,9 C 8,8 C 8,9 C 89 % 1014,3 hPa 0,0 l/m 12,9 km/h (3 Bft) SW 225 0 min 0,000 mm 0 W/m 7,2 C 4,8 C 30,6 km/h (5 Bft) 97 %
08.10.2017 02:50 8,9 C 8,8 C 8,9 C 89 % 1014,3 hPa 0,0 l/m 14,5 km/h (3 Bft) W-SW 247 0 min 0,000 mm 0 W/m 7,2 C 4,0 C 35,4 km/h (5 Bft) 98 %
08.10.2017 03:00 8,9 C 8,9 C 8,9 C 89 % 1014,4 hPa 0,0 l/m 11,3 km/h (2 Bft) W-SW 247 0 min 0,025 mm 0 W/m 7,2 C 5,6 C 29,0 km/h (5 Bft) 97 %
08.10.2017 03:10 8,9 C 8,9 C 8,9 C 89 % 1014,5 hPa 0,0 l/m 12,9 km/h (3 Bft) W-SW 247 0 min 0,000 mm 0 W/m 7,2 C 4,8 C 32,2 km/h (5 Bft) 98 %
08.10.2017 03:20 8,9 C 8,8 C 8,9 C 89 % 1014,3 hPa 0,0 l/m 12,9 km/h (3 Bft) W 270 0 min 0,000 mm 0 W/m 7,2 C 4,8 C 35,4 km/h (5 Bft) 97 %
08.10.2017 03:30 8,9 C 8,9 C 8,9 C 89 % 1014,2 hPa 0,2 l/m 11,3 km/h (2 Bft) W-SW 247 0 min 0,000 mm 0 W/m 7,2 C 5,6 C 29,0 km/h (5 Bft) 98 %
08.10.2017 03:40 8,9 C 8,9 C 8,9 C 89 % 1014,2 hPa 0,2 l/m 9,7 km/h (2 Bft) SW 225 0 min 0,000 mm 0 W/m 7,2 C 6,6 C 22,5 km/h (4 Bft) 97 %
08.10.2017 03:50 8,8 C 8,8 C 8,9 C 89 % 1014,2 hPa 0,2 l/m 12,9 km/h (3 Bft) SW 225 0 min 0,000 mm 0 W/m 7,1 C 4,7 C 25,7 km/h (4 Bft) 97 %
08.10.2017 04:00 8,8 C 8,8 C 8,9 C 89 % 1014,1 hPa 0,0 l/m 9,7 km/h (2 Bft) W-SW 247 0 min 0,025 mm 0 W/m 7,1 C 6,5 C 20,9 km/h (4 Bft) 98 %
08.10.2017 04:10 8,8 C 8,8 C 8,8 C 90 % 1014,1 hPa 0,2 l/m 8,0 km/h (2 Bft) W-SW 247 0 min 0,000 mm 0 W/m 7,3 C 7,6 C 24,1 km/h (4 Bft) 98 %
08.10.2017 04:20 8,8 C 8,8 C 8,8 C 90 % 1014,1 hPa 0,0 l/m 8,0 km/h (2 Bft) W 270 0 min 0,000 mm 0 W/m 7,3 C 7,6 C 20,9 km/h (4 Bft) 98 %
08.10.2017 04:30 8,8 C 8,8 C 8,8 C 90 % 1014,1 hPa 0,2 l/m 11,3 km/h (2 Bft) SW 225 0 min 0,000 mm 0 W/m 7,3 C 5,5 C 25,7 km/h (4 Bft) 97 %
08.10.2017 04:40 8,8 C 8,8 C 8,8 C 90 % 1014,1 hPa 0,0 l/m 8,0 km/h (2 Bft) W 270 0 min 0,000 mm 0 W/m 7,3 C 7,6 C 20,9 km/h (4 Bft) 97 %
08.10.2017 04:50 8,8 C 8,8 C 8,8 C 90 % 1014,0 hPa 0,0 l/m 11,3 km/h (2 Bft) W-SW 247 0 min 0,000 mm 0 W/m 7,3 C 5,5 C 25,7 km/h (4 Bft) 96 %
08.10.2017 05:00 8,8 C 8,8 C 8,8 C 90 % 1014,2 hPa 0,0 l/m 6,4 km/h (2 Bft) W-SW 247 0 min 0,025 mm 0 W/m 7,3 C 8,8 C 20,9 km/h (4 Bft) 98 %
08.10.2017 05:10 8,8 C 8,8 C 8,8 C 90 % 1014,2 hPa 0,0 l/m 11,3 km/h (2 Bft) W 270 0 min 0,000 mm 0 W/m 7,3 C 5,5 C 27,4 km/h (4 Bft) 98 %
08.10.2017 05:20 8,8 C 8,8 C 8,8 C 90 % 1014,2 hPa 0,2 l/m 9,7 km/h (2 Bft) W 270 0 min 0,000 mm 0 W/m 7,3 C 6,5 C 32,2 km/h (5 Bft) 98 %
08.10.2017 05:30 8,9 C 8,8 C 8,9 C 90 % 1014,2 hPa 0,0 l/m 8,0 km/h (2 Bft) W-SW 247 0 min 0,000 mm 0 W/m 7,4 C 7,7 C 19,3 km/h (3 Bft) 98 %
08.10.2017 05:40 8,9 C 8,9 C 8,9 C 90 % 1014,2 hPa 0,0 l/m 8,0 km/h (2 Bft) W-SW 247 0 min 0,000 mm 0 W/m 7,4 C 7,7 C 20,9 km/h (4 Bft) 97 %
08.10.2017 05:50 9,0 C 8,9 C 9,0 C 90 % 1014,3 hPa 0,0 l/m 11,3 km/h (2 Bft) W-SW 247 0 min 0,000 mm 0 W/m 7,4 C 5,7 C 30,6 km/h (5 Bft) 98 %
08.10.2017 06:00 9,0 C 8,9 C 9,0 C 90 % 1014,3 hPa 0,0 l/m 11,3 km/h (2 Bft) W-SW 247 0 min 0,025 mm 0 W/m 7,4 C 5,7 C 27,4 km/h (4 Bft) 98 %
08.10.2017 06:10 9,1 C 9,0 C 9,1 C 90 % 1014,2 hPa 0,0 l/m 11,3 km/h (2 Bft) W-SW 247 0 min 0,000 mm 0 W/m 7,5 C 5,9 C 32,2 km/h (5 Bft) 96 %
08.10.2017 06:20 9,1 C 9,1 C 9,1 C 90 % 1014,4 hPa 0,0 l/m 9,7 km/h (2 Bft) W 270 0 min 0,000 mm 0 W/m 7,5 C 6,8 C 27,4 km/h (4 Bft) 97 %
08.10.2017 06:30 9,1 C 9,1 C 9,1 C 90 % 1014,4 hPa 0,0 l/m 8,0 km/h (2 Bft) W-SW 247 0 min 0,000 mm 0 W/m 7,5 C 7,9 C 24,1 km/h (4 Bft) 98 %
08.10.2017 06:40 9,1 C 9,1 C 9,1 C 90 % 1014,5 hPa 0,2 l/m 8,0 km/h (2 Bft) W-SW 247 0 min 0,000 mm 0 W/m 7,5 C 7,9 C 17,7 km/h (3 Bft) 97 %
08.10.2017 06:50 9,2 C 9,1 C 9,2 C 90 % 1014,4 hPa 0,0 l/m 8,0 km/h (2 Bft) W 270 0 min 0,000 mm 0 W/m 7,6 C 8,0 C 25,7 km/h (4 Bft) 98 %
08.10.2017 07:00 9,2 C 9,2 C 9,2 C 90 % 1014,6 hPa 0,0 l/m 6,4 km/h (2 Bft) SW 225 0 min 0,025 mm 0 W/m 7,6 C 9,2 C 17,7 km/h (3 Bft) 97 %
08.10.2017 07:10 9,2 C 9,2 C 9,2 C 90 % 1014,7 hPa 0,0 l/m 3,2 km/h (1 Bft) W-SW 247 0 min 0,000 mm 0 W/m 7,6 C 9,2 C 16,1 km/h (3 Bft) 98 %
08.10.2017 07:20 9,3 C 9,2 C 9,3 C 90 % 1014,8 hPa 0,0 l/m 6,4 km/h (2 Bft) W-SW 247 0 min 0,000 mm 0 W/m 7,7 C 9,3 C 22,5 km/h (4 Bft) 97 %
08.10.2017 07:30 9,3 C 9,2 C 9,3 C 90 % 1014,8 hPa 0,0 l/m 4,8 km/h (1 Bft) W 270 0 min 0,000 mm 0 W/m 7,7 C 9,3 C 19,3 km/h (3 Bft) 97 %
08.10.2017 07:40 9,3 C 9,3 C 9,3 C 90 % 1014,9 hPa 0,0 l/m 6,4 km/h (2 Bft) W 270 0 min 0,000 mm 0 W/m 7,7 C 9,3 C 14,5 km/h (3 Bft) 98 %
08.10.2017 07:50 9,4 C 9,3 C 9,4 C 90 % 1015,0 hPa 0,0 l/m 8,0 km/h (2 Bft) W 270 0 min 0,000 mm 0 W/m 7,8 C 8,2 C 19,3 km/h (3 Bft) 97 %
08.10.2017 08:00 9,4 C 9,4 C 9,4 C 90 % 1015,1 hPa 0,0 l/m 4,8 km/h (1 Bft) W-SW 247 0 min 0,000 mm 0 W/m 7,8 C 9,4 C 17,7 km/h (3 Bft) 98 %
08.10.2017 08:10 9,4 C 9,4 C 9,4 C 90 % 1015,1 hPa 0,2 l/m 4,8 km/h (1 Bft) W 270 0 min 0,000 mm 0 W/m 7,8 C 9,4 C 19,3 km/h (3 Bft) 98 %
08.10.2017 08:20 9,4 C 9,4 C 9,4 C 90 % 1015,3 hPa 0,0 l/m 6,4 km/h (2 Bft) W 270 0 min 0,000 mm 5 W/m 7,8 C 9,4 C 22,5 km/h (4 Bft) 97 %
08.10.2017 08:30 9,5 C 9,4 C 9,5 C 90 % 1015,3 hPa 0,0 l/m 6,4 km/h (2 Bft) W 270 0 min 0,000 mm 7 W/m 7,9 C 9,5 C 17,7 km/h (3 Bft) 97 %
08.10.2017 08:40 9,5 C 9,4 C 9,5 C 90 % 1015,4 hPa 0,0 l/m 4,8 km/h (1 Bft) W 270 0 min 0,000 mm 12 W/m 7,9 C 9,5 C 14,5 km/h (3 Bft) 97 %
08.10.2017 08:50 9,6 C 9,5 C 9,6 C 90 % 1015,5 hPa 0,0 l/m 8,0 km/h (2 Bft) W 270 0 min 0,000 mm 21 W/m 8,0 C 8,4 C 19,3 km/h (3 Bft) 98 %
08.10.2017 09:00 9,6 C 9,6 C 9,6 C 90 % 1015,6 hPa 0,0 l/m 4,8 km/h (1 Bft) W 270 0 min 0,025 mm 51 W/m 8,0 C 9,6 C 17,7 km/h (3 Bft) 97 %
08.10.2017 09:10 9,7 C 9,6 C 9,7 C 90 % 1015,8 hPa 0,0 l/m 8,0 km/h (2 Bft) W 270 0 min 0,000 mm 56 W/m 8,1 C 8,5 C 19,3 km/h (3 Bft) 98 %
08.10.2017 09:20 9,8 C 9,7 C 9,8 C 90 % 1015,9 hPa 0,0 l/m 8,0 km/h (2 Bft) W-NW 292 0 min 0,000 mm 40 W/m 8,2 C 8,6 C 19,3 km/h (3 Bft) 98 %
08.10.2017 09:30 9,8 C 9,7 C 9,8 C 90 % 1016,1 hPa 0,0 l/m 6,4 km/h (2 Bft) W 270 0 min 0,000 mm 62 W/m 8,2 C 9,8 C 17,7 km/h (3 Bft) 97 %
08.10.2017 09:40 9,9 C 9,8 C 9,9 C 90 % 1016,1 hPa 0,2 l/m 4,8 km/h (1 Bft) W-NW 292 0 min 0,000 mm 100 W/m 8,3 C 9,9 C 14,5 km/h (3 Bft) 98 %
08.10.2017 10:10 10,2 C 9,8 C 10,2 C 90 % 1016,4 hPa 0,0 l/m 5,6 km/h (1 Bft) W-NW 300 0 min 0,028 mm 44 W/m 8,6 C 10,2 C 16,1 km/h (3 Bft) 99 %
08.10.2017 10:20 10,1 C 10,1 C 10,2 C 90 % 1016,5 hPa 0,0 l/m 5,8 km/h (2 Bft) W 272 0 min 0,000 mm 39 W/m 8,5 C 10,1 C 17,7 km/h (3 Bft) 100 %
08.10.2017 10:30 10,1 C 10,1 C 10,1 C 90 % 1016,6 hPa 0,0 l/m 6,2 km/h (2 Bft) W 269 0 min 0,000 mm 44 W/m 8,5 C 10,1 C 17,7 km/h (3 Bft) 100 %
08.10.2017 10:40 10,1 C 10,1 C 10,1 C 90 % 1016,7 hPa 0,0 l/m 5,8 km/h (2 Bft) W-NW 292 0 min 0,000 mm 69 W/m 8,5 C 10,1 C 14,5 km/h (3 Bft) 99 %
08.10.2017 10:50 10,2 C 10,1 C 10,2 C 90 % 1016,7 hPa 0,0 l/m 5,3 km/h (1 Bft) W 265 0 min 0,000 mm 88 W/m 8,6 C 10,2 C 12,9 km/h (3 Bft) 100 %
08.10.2017 11:00 10,3 C 10,2 C 10,3 C 90 % 1016,8 hPa 0,0 l/m 3,6 km/h (1 Bft) W-SW 247 0 min 0,000 mm 88 W/m 8,7 C 10,3 C 16,1 km/h (3 Bft) 100 %
08.10.2017 11:10 10,4 C 10,3 C 10,4 C 90 % 1016,9 hPa 0,0 l/m 5,0 km/h (1 Bft) W 261 0 min 0,025 mm 127 W/m 8,8 C 10,4 C 14,5 km/h (3 Bft) 90 %
08.10.2017 11:20 10,5 C 10,4 C 10,5 C 90 % 1017,0 hPa 0,0 l/m 4,5 km/h (1 Bft) W 263 0 min 0,001 mm 109 W/m 8,9 C 10,5 C 16,1 km/h (3 Bft) 99 %
08.10.2017 11:30 10,5 C 10,4 C 10,5 C 90 % 1017,0 hPa 0,0 l/m 6,5 km/h (2 Bft) NW 304 0 min 0,000 mm 100 W/m 8,9 C 10,5 C 22,5 km/h (4 Bft) 99 %
08.10.2017 11:40 10,6 C 10,5 C 10,6 C 90 % 1017,0 hPa 0,0 l/m 5,7 km/h (1 Bft) W-SW 254 0 min 0,000 mm 83 W/m 9,0 C 10,6 C 19,3 km/h (3 Bft) 97 %
08.10.2017 11:50 10,7 C 10,6 C 10,7 C 90 % 1017,1 hPa 0,0 l/m 5,0 km/h (1 Bft) SW 222 0 min 0,000 mm 151 W/m 9,1 C 10,7 C 17,7 km/h (3 Bft) 97 %
08.10.2017 12:00 10,8 C 10,7 C 10,8 C 90 % 1017,1 hPa 0,0 l/m 5,1 km/h (1 Bft) S-SW 205 0 min 0,000 mm 56 W/m 9,2 C 10,8 C 22,5 km/h (4 Bft) 97 %
08.10.2017 12:10 10,7 C 10,7 C 10,8 C 90 % 1017,1 hPa 0,0 l/m 8,6 km/h (2 Bft) W-SW 248 10 min 0,050 mm 178 W/m 9,1 C 9,2 C 25,7 km/h (4 Bft) 97 %
08.10.2017 12:20 10,9 C 10,7 C 10,9 C 90 % 1017,1 hPa 0,0 l/m 6,9 km/h (2 Bft) W-NW 283 0 min 0,000 mm 121 W/m 9,3 C 10,6 C 19,3 km/h (3 Bft) 97 %
08.10.2017 12:30 11,1 C 10,9 C 11,1 C 90 % 1017,1 hPa 0,0 l/m 6,2 km/h (2 Bft) SW 236 10 min 0,000 mm 255 W/m 9,5 C 11,1 C 17,7 km/h (3 Bft) 97 %
08.10.2017 12:40 11,2 C 11,1 C 11,2 C 90 % 1017,1 hPa 0,0 l/m 9,0 km/h (2 Bft) W-NW 298 0 min 0,000 mm 151 W/m 9,6 C 9,5 C 27,4 km/h (4 Bft) 97 %
08.10.2017 12:50 11,3 C 11,2 C 11,4 C 90 % 1017,2 hPa 0,0 l/m 7,8 km/h (2 Bft) W 279 0 min 0,000 mm 148 W/m 9,7 C 10,3 C 17,7 km/h (3 Bft) 98 %
08.10.2017 13:00 11,3 C 11,3 C 11,3 C 90 % 1017,2 hPa 0,0 l/m 6,9 km/h (2 Bft) W 269 0 min 0,000 mm 135 W/m 9,7 C 11,0 C 20,9 km/h (4 Bft) 97 %
08.10.2017 13:10 11,3 C 11,3 C 11,3 C 90 % 1017,1 hPa 0,0 l/m 7,7 km/h (2 Bft) W-SW 257 0 min 0,102 mm 120 W/m 9,7 C 10,4 C 24,1 km/h (4 Bft) 98 %
08.10.2017 13:20 11,3 C 11,3 C 11,3 C 90 % 1017,2 hPa 0,0 l/m 7,5 km/h (2 Bft) W-SW 253 0 min 0,000 mm 60 W/m 9,7 C 10,5 C 19,3 km/h (3 Bft) 97 %
08.10.2017 13:30 11,3 C 11,3 C 11,3 C 90 % 1017,1 hPa 0,0 l/m 5,6 km/h (1 Bft) W-SW 240 0 min 0,000 mm 62 W/m 9,7 C 11,3 C 17,7 km/h (3 Bft) 97 %
08.10.2017 13:40 11,3 C 11,3 C 11,3 C 90 % 1017,1 hPa 0,0 l/m 4,3 km/h (1 Bft) W 276 0 min 0,000 mm 118 W/m 9,7 C 11,3 C 12,9 km/h (3 Bft) 97 %
08.10.2017 13:50 11,4 C 11,3 C 11,4 C 90 % 1017,1 hPa 0,0 l/m 4,7 km/h (1 Bft) S-SW 207 0 min 0,000 mm 105 W/m 9,8 C 11,4 C 19,3 km/h (3 Bft) 98 %
08.10.2017 14:00 11,6 C 11,4 C 11,6 C 90 % 1017,1 hPa 0,0 l/m 2,5 km/h (1 Bft) W-SW 257 0 min 0,051 mm 116 W/m 10,0 C 11,6 C 14,5 km/h (3 Bft) 97 %
08.10.2017 14:10 11,6 C 11,6 C 11,6 C 90 % 1017,1 hPa 0,0 l/m 2,6 km/h (1 Bft) W 270 10 min 0,000 mm 155 W/m 10,0 C 11,6 C 16,1 km/h (3 Bft) 97 %
08.10.2017 14:20 11,7 C 11,6 C 11,7 C 90 % 1017,1 hPa 0,0 l/m 5,7 km/h (1 Bft) W 260 0 min 0,000 mm 84 W/m 10,1 C 11,7 C 19,3 km/h (3 Bft) 98 %
08.10.2017 14:30 11,8 C 11,7 C 11,8 C 90 % 1017,1 hPa 0,0 l/m 2,9 km/h (1 Bft) W-NW 292 0 min 0,000 mm 54 W/m 10,2 C 11,8 C 14,5 km/h (3 Bft) 97 %
08.10.2017 14:40 11,8 C 11,8 C 11,8 C 90 % 1016,9 hPa 0,0 l/m 2,5 km/h (1 Bft) W-NW 283 0 min 0,000 mm 77 W/m 10,2 C 11,8 C 12,9 km/h (3 Bft) 98 %
08.10.2017 14:50 11,8 C 11,8 C 11,8 C 90 % 1016,8 hPa 0,0 l/m 4,4 km/h (1 Bft) SW 236 0 min 0,000 mm 142 W/m 10,2 C 11,8 C 16,1 km/h (3 Bft) 97 %
08.10.2017 15:00 12,1 C 11,8 C 12,1 C 90 % 1016,7 hPa 0,0 l/m 4,1 km/h (1 Bft) SW 219 10 min 0,051 mm 204 W/m 10,5 C 12,1 C 14,5 km/h (3 Bft) 97 %
08.10.2017 15:10 12,2 C 12,0 C 12,2 C 90 % 1016,7 hPa 0,0 l/m 3,8 km/h (1 Bft) SW 215 10 min 0,000 mm 163 W/m 10,6 C 12,2 C 17,7 km/h (3 Bft) 98 %
08.10.2017 15:20 12,4 C 12,2 C 12,4 C 90 % 1016,6 hPa 0,0 l/m 9,3 km/h (2 Bft) SW 235 10 min 0,000 mm 207 W/m 10,8 C 10,6 C 17,7 km/h (3 Bft) 97 %
08.10.2017 15:30 12,6 C 12,4 C 12,6 C 90 % 1016,5 hPa 0,0 l/m 1,7 km/h (1 Bft) SW 221 0 min 0,000 mm 109 W/m 11,0 C 12,6 C 9,7 km/h (2 Bft) 98 %
08.10.2017 15:40 12,6 C 12,6 C 12,6 C 89 % 1016,6 hPa 0,0 l/m 6,2 km/h (2 Bft) S-SW 204 0 min 0,000 mm 90 W/m 10,8 C 12,6 C 16,1 km/h (3 Bft) 98 %
08.10.2017 15:50 12,6 C 12,6 C 12,6 C 89 % 1016,5 hPa 0,0 l/m 1,8 km/h (1 Bft) SW 219 0 min 0,000 mm 105 W/m 10,8 C 12,6 C 6,4 km/h (2 Bft) 100 %
08.10.2017 16:00 12,6 C 12,6 C 12,6 C 89 % 1016,5 hPa 0,0 l/m 6,2 km/h (2 Bft) W 265 0 min 0,076 mm 62 W/m 10,8 C 12,6 C 19,3 km/h (3 Bft) 97 %
08.10.2017 16:10 12,6 C 12,6 C 12,6 C 89 % 1016,5 hPa 0,0 l/m 4,6 km/h (1 Bft) SW 229 0 min 0,000 mm 95 W/m 10,8 C 12,6 C 19,3 km/h (3 Bft) 97 %
08.10.2017 16:20 12,5 C 12,5 C 12,6 C 89 % 1016,4 hPa 0,0 l/m 7,1 km/h (2 Bft) S-SW 196 0 min 0,000 mm 60 W/m 10,7 C 12,0 C 16,1 km/h (3 Bft) 98 %
08.10.2017 16:30 12,4 C 12,4 C 12,5 C 90 % 1016,6 hPa 0,0 l/m 4,5 km/h (1 Bft) W 259 0 min 0,000 mm 42 W/m 10,8 C 12,4 C 19,3 km/h (3 Bft) 97 %
08.10.2017 16:40 12,3 C 12,3 C 12,4 C 90 % 1016,4 hPa 0,2 l/m 7,2 km/h (2 Bft) W-SW 245 0 min 0,000 mm 35 W/m 10,7 C 11,8 C 22,5 km/h (4 Bft) 98 %
08.10.2017 16:50 12,2 C 12,2 C 12,3 C 90 % 1016,5 hPa 0,0 l/m 6,7 km/h (2 Bft) W 265 0 min 0,000 mm 14 W/m 10,6 C 12,0 C 22,5 km/h (4 Bft) 97 %
08.10.2017 17:00 12,1 C 12,1 C 12,2 C 90 % 1016,6 hPa 0,8 l/m 2,7 km/h (1 Bft) W-SW 257 0 min 0,025 mm 9 W/m 10,5 C 12,1 C 11,3 km/h (2 Bft) 89 %
08.10.2017 17:10 12,1 C 12,1 C 12,1 C 90 % 1016,8 hPa 0,0 l/m 1,9 km/h (1 Bft) W-NW 294 0 min 0,000 mm 21 W/m 10,5 C 12,1 C 11,3 km/h (2 Bft) 97 %
08.10.2017 17:20 12,0 C 12,0 C 12,1 C 90 % 1016,8 hPa 0,0 l/m 1,0 km/h (0 Bft) SW 228 0 min 0,000 mm 18 W/m 10,4 C 12,0 C 11,3 km/h (2 Bft) 97 %
08.10.2017 17:30 12,0 C 12,0 C 12,0 C 89 % 1016,9 hPa 0,0 l/m 2,2 km/h (1 Bft) NW 320 0 min 0,000 mm 19 W/m 10,2 C 12,0 C 9,7 km/h (2 Bft) 98 %
08.10.2017 17:40 11,9 C 11,9 C 12,0 C 89 % 1017,0 hPa 0,0 l/m 0,0 km/h (0 Bft) NW 321 0 min 0,000 mm 12 W/m 10,1 C 11,9 C 0,0 km/h (0 Bft) 97 %
08.10.2017 17:50 11,9 C 11,9 C 11,9 C 89 % 1017,1 hPa 0,0 l/m 0,3 km/h (0 Bft) W-NW 287 0 min 0,000 mm 19 W/m 10,1 C 11,9 C 4,8 km/h (1 Bft) 98 %
08.10.2017 18:00 11,9 C 11,9 C 11,9 C 89 % 1017,2 hPa 0,2 l/m 1,3 km/h (1 Bft) W-NW 282 0 min 0,000 mm 28 W/m 10,1 C 11,9 C 8,0 km/h (2 Bft) 98 %
08.10.2017 18:10 11,9 C 11,9 C 11,9 C 89 % 1017,2 hPa 0,0 l/m 0,0 km/h (0 Bft) W-NW 282 0 min 0,000 mm 28 W/m 10,1 C 11,9 C 1,6 km/h (1 Bft) 97 %
08.10.2017 18:20 11,8 C 11,8 C 11,9 C 89 % 1017,4 hPa 0,0 l/m 1,8 km/h (1 Bft) W-NW 284 0 min 0,000 mm 19 W/m 10,0 C 11,8 C 8,0 km/h (2 Bft) 98 %
08.10.2017 18:30 11,7 C 11,7 C 11,8 C 90 % 1017,5 hPa 0,0 l/m 1,2 km/h (1 Bft) W-NW 294 0 min 0,000 mm 7 W/m 10,1 C 11,7 C 8,0 km/h (2 Bft) 100 %
08.10.2017 18:40 11,7 C 11,7 C 11,7 C 90 % 1017,5 hPa 0,0 l/m 3,0 km/h (1 Bft) W-NW 301 0 min 0,000 mm 0 W/m 10,1 C 11,7 C 9,7 km/h (2 Bft) 100 %
08.10.2017 18:50 11,5 C 11,5 C 11,7 C 89 % 1017,7 hPa 0,0 l/m 1,5 km/h (1 Bft) W-NW 295 0 min 0,000 mm 0 W/m 9,8 C 11,5 C 8,0 km/h (2 Bft) 100 %
08.10.2017 19:00 11,4 C 11,4 C 11,5 C 89 % 1017,8 hPa 0,0 l/m 1,3 km/h (1 Bft) W-SW 258 0 min 0,000 mm 0 W/m 9,7 C 11,4 C 8,0 km/h (2 Bft) 100 %
08.10.2017 19:10 11,3 C 11,3 C 11,4 C 90 % 1018,0 hPa 0,0 l/m 1,5 km/h (1 Bft) W-NW 296 0 min 0,000 mm 0 W/m 9,7 C 11,3 C 8,0 km/h (2 Bft) 100 %
08.10.2017 19:20 11,2 C 11,2 C 11,3 C 90 % 1018,2 hPa 0,0 l/m 0,0 km/h (0 Bft) W-NW 295 0 min 0,000 mm 0 W/m 9,6 C 11,2 C 1,6 km/h (1 Bft) 100 %
08.10.2017 19:30 11,1 C 11,1 C 11,2 C 89 % 1018,3 hPa 0,0 l/m 0,0 km/h (0 Bft) W-NW 295 0 min 0,000 mm 0 W/m 9,4 C 11,1 C 0,0 km/h (0 Bft) 100 %
08.10.2017 19:40 11,0 C 11,0 C 11,1 C 89 % 1018,4 hPa 0,0 l/m 0,0 km/h (0 Bft) W-NW 295 0 min 0,000 mm 0 W/m 9,3 C 11,0 C 0,0 km/h (0 Bft) 100 %
08.10.2017 19:50 10,9 C 10,9 C 11,0 C 90 % 1018,5 hPa 0,0 l/m 0,0 km/h (0 Bft) W-NW 295 0 min 0,000 mm 0 W/m 9,3 C 10,9 C 0,0 km/h (0 Bft) 100 %
08.10.2017 20:00 10,9 C 10,9 C 10,9 C 90 % 1018,5 hPa 0,0 l/m 0,0 km/h (0 Bft) W-NW 295 0 min 0,000 mm 0 W/m 9,3 C 10,9 C 0,0 km/h (0 Bft) 100 %
08.10.2017 20:10 10,8 C 10,8 C 10,9 C 89 % 1018,6 hPa 0,0 l/m 0,3 km/h (0 Bft) W-SW 244 0 min 0,000 mm 0 W/m 9,1 C 10,8 C 6,4 km/h (2 Bft) 100 %
08.10.2017 20:20 10,8 C 10,8 C 10,8 C 90 % 1018,6 hPa 0,0 l/m 1,2 km/h (1 Bft) SW 223 0 min 0,000 mm 0 W/m 9,2 C 10,8 C 6,4 km/h (2 Bft) 100 %
08.10.2017 20:30 10,8 C 10,8 C 10,8 C 90 % 1018,6 hPa 0,0 l/m 3,7 km/h (1 Bft) S-SW 199 0 min 0,000 mm 0 W/m 9,2 C 10,8 C 9,7 km/h (2 Bft) 91 %
08.10.2017 20:40 10,9 C 10,8 C 10,9 C 90 % 1018,7 hPa 0,0 l/m 4,9 km/h (1 Bft) SW 220 0 min 0,000 mm 0 W/m 9,3 C 10,9 C 14,5 km/h (3 Bft) 100 %
08.10.2017 20:50 10,9 C 10,9 C 10,9 C 90 % 1018,6 hPa 0,0 l/m 2,7 km/h (1 Bft) SW 218 0 min 0,000 mm 0 W/m 9,3 C 10,9 C 8,0 km/h (2 Bft) 100 %
08.10.2017 21:00 10,9 C 10,8 C 10,9 C 90 % 1018,7 hPa 0,0 l/m 1,2 km/h (1 Bft) SW 217 0 min 0,000 mm 0 W/m 9,3 C 10,9 C 6,4 km/h (2 Bft) 100 %
08.10.2017 21:10 10,9 C 10,8 C 10,9 C 90 % 1018,6 hPa 0,0 l/m 0,0 km/h (0 Bft) SW 225 0 min 0,000 mm 0 W/m 9,3 C 10,9 C 1,6 km/h (1 Bft) 100 %
08.10.2017 21:20 10,9 C 10,8 C 10,9 C 90 % 1018,7 hPa 0,0 l/m 0,0 km/h (0 Bft) S-SW 202 0 min 0,000 mm 0 W/m 9,3 C 10,9 C 6,4 km/h (2 Bft) 100 %
08.10.2017 21:30 10,9 C 10,8 C 10,9 C 90 % 1018,7 hPa 0,0 l/m 0,0 km/h (0 Bft) N 0 0 min 0,000 mm 0 W/m 9,3 C 10,9 C 0,0 km/h (0 Bft) 100 %
08.10.2017 21:40 10,9 C 10,9 C 10,9 C 90 % 1018,7 hPa 0,0 l/m 0,0 km/h (0 Bft) N 0 0 min 0,000 mm 0 W/m 9,3 C 10,9 C 0,0 km/h (0 Bft) 100 %
08.10.2017 21:50 10,9 C 10,9 C 10,9 C 90 % 1018,6 hPa 0,0 l/m 0,0 km/h (0 Bft) W-NW 292 0 min 0,000 mm 0 W/m 9,3 C 10,9 C 9,7 km/h (2 Bft) 100 %
08.10.2017 22:00 11,0 C 10,9 C 11,0 C 90 % 1018,7 hPa 0,0 l/m 1,6 km/h (1 Bft) W 270 0 min 0,000 mm 0 W/m 9,4 C 11,0 C 11,3 km/h (2 Bft) 100 %
08.10.2017 22:10 11,1 C 11,0 C 11,1 C 90 % 1018,7 hPa 0,0 l/m 1,6 km/h (1 Bft) W 270 0 min 0,000 mm 0 W/m 9,5 C 11,1 C 8,0 km/h (2 Bft) 100 %
08.10.2017 22:20 11,1 C 11,1 C 11,1 C 90 % 1018,7 hPa 0,0 l/m 3,2 km/h (1 Bft) NW 315 0 min 0,000 mm 0 W/m 9,5 C 11,1 C 9,7 km/h (2 Bft) 100 %
08.10.2017 22:30 11,1 C 11,1 C 11,1 C 90 % 1018,8 hPa 0,0 l/m 0,0 km/h (0 Bft) W-NW 292 0 min 0,000 mm 0 W/m 9,5 C 11,1 C 6,4 km/h (2 Bft) 100 %
08.10.2017 22:40 11,1 C 11,1 C 11,1 C 90 % 1019,0 hPa 0,2 l/m 1,6 km/h (1 Bft) W-NW 292 0 min 0,000 mm 0 W/m 9,5 C 11,1 C 9,7 km/h (2 Bft) 100 %
08.10.2017 22:50 11,1 C 11,1 C 11,1 C 90 % 1019,0 hPa 0,2 l/m 0,0 km/h (0 Bft) W-NW 292 0 min 0,000 mm 0 W/m 9,5 C 11,1 C 4,8 km/h (1 Bft) 100 %
08.10.2017 23:00 11,1 C 11,1 C 11,1 C 90 % 1019,0 hPa 0,0 l/m 0,0 km/h (0 Bft) N 0 0 min 0,000 mm 0 W/m 9,5 C 11,1 C 0,0 km/h (0 Bft) 100 %
08.10.2017 23:10 11,0 C 11,0 C 11,1 C 90 % 1018,9 hPa 0,2 l/m 0,0 km/h (0 Bft) W 270 0 min 0,000 mm 0 W/m 9,4 C 11,0 C 6,4 km/h (2 Bft) 100 %
08.10.2017 23:20 10,9 C 10,9 C 11,0 C 90 % 1019,1 hPa 0,0 l/m 0,0 km/h (0 Bft) W 270 0 min 0,000 mm 0 W/m 9,3 C 10,9 C 1,6 km/h (1 Bft) 100 %
08.10.2017 23:30 10,8 C 10,8 C 10,9 C 90 % 1019,0 hPa 0,0 l/m 1,6 km/h (1 Bft) W-NW 292 0 min 0,000 mm 0 W/m 9,2 C 10,8 C 6,4 km/h (2 Bft) 100 %
08.10.2017 23:40 10,8 C 10,8 C 10,8 C 90 % 1018,9 hPa 0,0 l/m 1,6 km/h (1 Bft) W-NW 292 0 min 0,000 mm 0 W/m 9,2 C 10,8 C 6,4 km/h (2 Bft) 100 %
08.10.2017 23:50 10,7 C 10,7 C 10,8 C 90 % 1019,0 hPa 0,0 l/m 0,0 km/h (0 Bft) W-NW 292 0 min 0,000 mm 0 W/m 9,1 C 10,7 C 1,6 km/h (1 Bft) 100 %
_ Min-Zeit 00:40 00:40 00:50 00:00 04:50 - 17:40 - - - - - 00:40 02:50 17:40 17:00
Minimum _ 8,1 C 8,1 C 8,1 C 89 % 1014,0 hPa - 0,0 km/h (0 Bft) - - - - - 6,4 C 4,0 C 0,0 km/h (0 Bft) 89 %
_ Max-Zeit 15:30 15:40 15:30 01:00 23:20 17:00 02:50 - - 12:10 13:10 12:30 15:30 15:30 02:50 15:50
Maximum _ 12,6 C 12,6 C 12,6 C 90 % 1019,1 hPa 0,8 l/m 14,5 km/h
W-SW (3 Bft)
- - 10 min 0,102 mm 255 W/m 11,0 C 12,6 C 35,4 km/h
W-SW (5 Bft)
100 %
Durchschnitt _ 10,3 C 10,3 C 10,3 C 90 % 1016,4 hPa #4,0 l/m 5,3 km/h (1 Bft) W - #1:00 h #0,584 mm 80 W/m 8,7 C 9,6 C 16,0 km/h (3 Bft) 98 %
PRIVATE WETTERSTATION BILLIGHEIM-ALLFELD - www.neckar-odenwald-wetter.de - Holger Sonntag